Flag for Chile Weather past 2 weeks in Osorno, Chile

Now
66 °F

Broken clouds.


Feels Like: 66 °F
Forecast: N/A
Wind: 6 mph from Northeast

Location: Puerto Montt Airport

Current Time: Mar 5, 2015 at 7:43:20 PM

Latest Report: Mar 5, 2015 at 7:00 PM


Visibility: N/A

Pressure: 29.98 "Hg

Humidity: 56%

Dew point: 50 °F

Location of OsornoLocation

Historic Weather in Osorno — Graph

°F

Osorno temperature yesterday

Maximum temperature yesterday: 73 °F (at 5:00 PM)
Minimum temperature yesterday: 37 °F (at 5:00 AM)
Average temperature yesterday: 54 °F

Past Weeks' High & Low Weather Summary

 TemperatureHumidityPressure
High84 °F (Feb 22, 6:00 PM)100% (Feb 22, 5:00 AM)30.21 "Hg (Feb 22, 5:00 AM)
Low37 °F (Mar 4, 5:00 AM)31% (Mar 4, 5:00 PM)29.86 "Hg (Mar 2, 6:00 AM)
Average57 °F79%30.03 "Hg
* Reported Feb 18 5:00 PM — Mar 5 5:00 PM, Osorno, Weather by CustomWeather, © 2015

Note: Actual official high and low records may vary slightly from our data, if they occured in-between our weather recording intervals... More about our weather records

Advertising

Osorno weather history for previous 24 hours

 ConditionsComfort  
Time TempWeatherWind HumidityBarometerVisibility
5:00 PM
Thu, Mar 5
63 °FPartly sunny.6 mph73%30.01 "HgN/A
4:00 PM61 °FDrizzle. Broken clouds.5 mph77%30.04 "Hg4 mi
3:00 PM57 °FPartly sunny.7 mph88%30.04 "HgN/A
2:00 PM55 °FDrizzle. More clouds than sun.9 mph94%30.04 "Hg2 mi
1:00 PM57 °FDrizzle. More clouds than sun.9 mph88%30.04 "Hg1 mi
12:00 PM55 °FLight rain. Overcast.12 mph88%30.04 "Hg1 mi
11:00 AM55 °FLight rain. Overcast.12 mph82%30.01 "Hg4 mi
10:00 AM55 °FOvercast.16 mph77%29.98 "HgN/A
9:00 AM55 °FPartly sunny.14 mph77%29.98 "HgN/A
8:00 AM54 °FPartly sunny.10 mph88%29.98 "HgN/A
7:00 AM52 °FPassing clouds.9 mph82%29.98 "HgN/A
6:00 AM46 °FClear.7 mph93%29.98 "Hg10 mi
5:00 AM46 °FClear.5 mph93%29.98 "Hg10 mi
4:00 AM45 °FClear.No wind93%29.98 "Hg2 mi
3:00 AM45 °FClear.No wind93%29.98 "Hg2 mi
2:00 AM46 °FClear.No wind87%29.98 "Hg3 mi
1:00 AM48 °FClear.No wind87%29.98 "Hg10 mi
12:00 AM48 °FClear.2 mph82%29.98 "Hg10 mi
11:00 PM
Wed, Mar 4
50 °FClear.2 mph82%29.98 "Hg10 mi
10:00 PMN/A5 mphN/AN/AN/A
9:00 PM57 °FClear.7 mph67%29.95 "Hg10 mi
8:00 PM63 °FSunny.8 mph56%29.95 "Hg10 mi
7:00 PM68 °FSunny.8 mph49%29.92 "Hg10 mi
Weather by CustomWeather, © 2015

See weather overviewHow to use our weather pages